Overview Statistics Trail Chart Weather Telemetry Raw packets
 

This is the latest recevied weather packets stored in our database for station/object N9DMT-13. If no packets are shown the sender has not sent any weather packets the latest 10 day(s).

<< 58 59 60 61 62 63 64 >>
Time Temp. Humidity Pressure Rain* Wind** Luminosity Snow
1777454990 6.67° C 91% 983.6 hPa 0 mm - - -
1777454689 6.67° C 91% 983.6 hPa 0 mm - - -
1777454388 6.67° C 91% 983.6 hPa 1.78 mm - - -
1777454087 6.67° C 90% 983.8 hPa 1.78 mm - - -
1777453787 6.67° C 89% 983.5 hPa 0 mm - - -
1777453486 7.22° C 88% 983.6 hPa 0 mm - - -
1777453185 7.22° C 86% 983.7 hPa 0 mm - - -
1777452884 7.22° C 86% 983.7 hPa 0 mm - - -
1777452584 7.22° C 85% 983.7 hPa 1.78 mm - - -
1777452283 7.78° C 83% 983.7 hPa 1.78 mm - - -
1777451983 7.78° C 80% 983.5 hPa 0 mm - - -
1777451682 7.78° C 78% 983.6 hPa 0 mm - - -
1777451381 8.33° C 77% 983.3 hPa 0 mm - - -
1777451081 8.89° C 72% 983.5 hPa 0 mm - - -
1777450780 9.44° C 68% 983.3 hPa 0 mm - - -
1777450479 10° C 63% 983.1 hPa 0 mm - - -
1777450179 10° C 60% 982.9 hPa 0 mm - - -
1777449878 10° C 60% 982.8 hPa 0 mm - - -
1777449577 10° C 61% 982.7 hPa 0 mm - - -
1777449276 10° C 62% 982.6 hPa 0 mm - - -
1777448976 10° C 62% 982.5 hPa 0 mm - - -
1777448675 9.44° C 62% 982.5 hPa 0 mm - - -
1777448374 9.44° C 64% 982.5 hPa 0 mm - - -
1777448074 9.44° C 62% 982.4 hPa 0 mm - - -
1777447773 9.44° C 63% 982.8 hPa 0 mm - - -

* Rain latest hour (hover to see other rain measurements)
** Current wind speed in m/s (hover to see current wind gust speed)